Regional Weather Roundup
Issued by NWS Charleston, SC

Current Version | Previous Version | Text Only | Print | Product List | Glossary Off
Versions: 1 2 3 4 5 6 7 8 9 10 11 12 13 14 15 16 17 18 19 20 21 22 23 24 25 26 27 28 29 30 31 32 33 34 35 36 37 38 39 40 41 42 43 44 45 46 47 48 49 50

965
ASUS42 KCHS 302113
RWRCHS

REGIONAL WEATHER ROUNDUP
NATIONAL WEATHER SERVICE CHARLESTON SC
500 PM EDT SAT JUL 30 2016

NOTE: "FAIR" INDICATES FEW OR NO CLOUDS BELOW 12,000 FEET WITH NO
SIGNIFICANT WEATHER AND/OR OBSTRUCTIONS TO VISIBILITY.

NOT ALL STATIONS ARE QUALITY CONTROLLED. USE DATA WITH CAUTION...
ESPECIALLY DEWPOINT OBSERVATIONS.

SCZ027-030-031-034>040-042>050-302200-
...SOUTHEAST SOUTH CAROLINA...

CITY           SKY/WX    TMP DP  RH WIND       PRES   REMARKS
N CHARLESTON   MOSUNNY   96  72  45 S17       29.95S HX 104
WATERFRONT PRK   N/A     90  77  65 S13       29.95F HX 103
MOUNT PLEASANT FAIR      93  75  55 S10       29.96S HX 104
JOHNS ISLAND   FAIR      93  77  59 S14       29.97S HX 107
PINOPOLIS        N/A     97  70  41 SW6       29.85F HX 103
MONCKS CORNER  FAIR      95  61  31 SW9       29.94S HX  95
SUMMERVILLE    NOT AVBL
BEAUFORT MCAS    N/A     96  75  50 S9        29.96R HX 108
BEAUFORT ARPT  FAIR      93  75  55 S12G18    29.96S HX 104
HILTON HEAD IS MOSUNNY   97  79  56 S12G21    29.98F HX 115
WALTERBORO     CLEAR     99  63  30 S9        29.95S HX 100
ALLENDALE      FAIR      95  72  46 VRB6      29.94S HX 103

...SOUTHERN MIDLANDS AND PEE DEE...

CITY           SKY/WX    TMP DP  RH WIND       PRES   REMARKS
GEORGETOWN     FAIR      93  73  52 S12       29.96F HX 102
KINGSTREE      MOCLDY    95  68  41 S6        29.93S HX  99
ORANGEBURG     CLOUDY    94  70  45 W16       29.95R HX 100
BARNWELL       NOT AVBL
AIKEN          FAIR      90  70  51 S9        30.00F HX  95
MANNING        FAIR      95  70  43 S8        29.93F HX 101
COLUMBIA       CLOUDY    91  69  48 SW10      29.93F HX  96
SUMTER         SUNNY     94  70  46 SW10      29.91S HAZE    HX 100
FLORENCE       SUNNY     96  70  42 S13       29.92F HX 102
MYRTLE BEACH   MOSUNNY   93  68  43 S16       29.96F HX  97
N MYRTLE BEACH MOSUNNY   91  77  63 SW14G24   29.95S HX 104

$$

GAZ063-065-086>088-099>101-113>116-118-119-134>141-150-302200-
...SOUTHEAST GEORGIA...

CITY           SKY/WX    TMP DP  RH WIND       PRES   REMARKS
SAVANNAH ARPT  PTSUNNY   96  74  48 S22       29.96S HX 107
HUNTER AAF     MOSUNNY   91  77  64 SE10      29.95S HX 104
FORT STEWART   MOSUNNY   96  68  39 S3        29.93F HX 101
STATESBORO     MOSUNNY   98  72  42 S5        29.95S HX 107
SYLVANIA       NOT AVBL
CLAXTON        MOCLDY    98  69  38 S5        29.95S HX 104

...CSRA...CENTRAL AND FAR SOUTHEAST GEORGIA...

CITY           SKY/WX    TMP DP  RH WIND       PRES   REMARKS
THOMSON        NOT AVBL
AUGUSTA-BUSH   PTSUNNY   91  73  55 SW5       29.95F HX  99
AUGUSTA-DANIEL MOSUNNY   90  75  61 S5        29.97F HX 100
SWAINSBORO     MOCLDY    91  70  49 W8        29.98S HX  97
VIDALIA        PTSUNNY   97  70  41 NW8       29.96S HX 103
EASTMAN        FAIR      93  58  30 NW6       30.01S HX  92
HAZLEHURST     FAIR      99  68  35 CALM      29.95F HX 105
ALMA           SUNNY     99  65  32 S9        29.96F HX 102
WAYCROSS       SUNNY    102  72  37 W8        29.96F HX 111
JESUP          FAIR     100  73  41 SW6       29.96F HX 111
BAXLEY         FAIR      99  73  44 S6        29.95F HX 109
BRUNSWICK      CLOUDY    95  77  55 SE12      29.99S HX 109
SAINT SIMONS   SUNNY     92  74  55 SE10      29.98F HX 101

$$

SCZ027-028-034-036>038-045-046-048>050-GAZ119-141-302200-
...LAKE AND SUPPLEMENTAL COASTAL OBSERVATIONS...

STATION/POSITION TIME  TEMP    WIND        PRES    WAVE   SWELL
                       AIR SEA DIR/SP/G            HT/PER HT/PER/DIR
                 (UTC) (F)     (DEG/KT/KT) (MB)    (FT/S) (FT/S/D)
WINYAH BAY       NOT AVBL
LAKE MURRAY      2000   85     280/ 11/ 15 1013.9R
ACE BASIN NERRS  NOT AVBL
FORT PULASKI     2000   91 88  160/  8/ 14 1015.5F
SAPELO ISLAND    2000   93     150/ 12     1015.0F

$$

ANZ835-935-AMZ111-154-330-350-352-354-370-450-454-472-302200-
...C-MAN AND BUOY OBSERVATIONS...

STATION/POSITION TIME  TEMP    WIND        PRES    WAVE   SWELL
                       AIR SEA DIR/SP/G            HT/PER HT/PER/DIR
                 (UTC) (F)     (DEG/KT/KT) (MB)    (FT/S) (FT/S/D)
BUOY 41004       2050   86 87  200/ 12/ 16 1014.5F   2/ 5   2/140/ 8
BUOY 41008       2050   86 88  160/ 14/ 16 1015.0F   2/ 8   2/ 80/ 8
FOLLY BEACH CMAN 2100   88     190/ 15/ 16 1015.2S
CAPERS NEARSHORE 2008   86 87  200/ 14/ 19 1014.3F
FRIPP NEARSHORE  2008   87 88  190/ 16/ 19 1014.4F


STATION/POSITION TIME  TEMP    WIND        PRES    WAVE   SWELL
                       AIR SEA DIR/SP/G            HT/PER HT/PER/DIR
                 (UTC) (F)     (DEG/KT/KT) (MB)    (FT/S) (FT/S/D)
5E ST. MARYS GA  2001      87                N/A     1/ 8
FRYING PAN BUOY  2100   86 86  200/ 14/ 16 1014.1F
BUOY 41025       2050   85 85  180/ 14/ 16 1015.4R   2/ 6   2/230/ 6
CAPE LOOKOUT NC  2100   86     190/  7/ 10 1015.0R
BUOY 41002       2050   85 86  200/  6/  8 1017.3F   3/ 6   2/240/ 6
BUOY 41010       2020   86 90   90/  4/  6 1017.8F
ST AUGUSTINE FL  2100   84 87  150/ 10/ 10 1017.3F


$$




USA.gov is the U.S. government's official web portal to all federal, state and local government web resources and services.